Date,TemperatureHighF,TemperatureAvgF,TemperatureLowF,DewpointHighF,DewpointAvgF,DewpointLowF,HumidityHigh,HumidityAvg,HumidityLow,PressureMaxIn,PressureMinIn,WindSpeedMaxMPH,WindSpeedAvgMPH,GustSpeedMaxMPH,PrecipitationSumIn
2013-9-1,64.9,59.1,54.4,61.8,57.8,54.1,99,96,84,29.99,29.93,10,2,17,0.00
2013-9-2,69.6,63.0,59.1,63.9,61.1,58.5,99,94,80,29.99,29.92,13,3,15,0.00
2013-9-3,66.8,61.0,57.1,62.0,59.2,56.8,99,94,80,30.04,29.96,9,2,19,0.00
2013-9-4,67.7,61.1,57.8,62.1,59.2,57.2,98,94,82,30.06,29.97,12,4,23,0.00
2013-9-5,66.7,60.4,55.3,60.3,57.7,53.6,98,91,79,30.06,29.98,19,3,21,0.00
2013-9-6,78.6,67.0,53.6,60.8,54.1,48.3,98,67,42,30.02,29.86,8,1,11,0.00
2013-9-7,83.5,68.6,54.7,60.8,54.8,47.8,97,64,41,29.89,29.84,7,1,10,0.00
2013-9-8,63.5,56.9,53.2,60.1,55.5,52.7,99,95,85,29.90,29.81,6,1,10,0.00
2013-9-9,64.3,57.3,52.6,60.8,56.0,52.3,99,96,80,29.85,29.75,7,1,15,0.01
2013-9-10,65.8,60.0,55.8,61.5,58.2,55.5,99,94,83,29.93,29.77,7,2,22,0.01
2013-9-11,67.9,62.2,59.9,60.1,58.5,57.4,94,88,75,30.02,29.92,6,1,15,0.00
2013-9-12,65.0,59.7,56.5,60.7,58.4,55.9,98,96,84,30.01,29.92,11,2,14,0.04
2013-9-13,58.0,55.6,53.8,57.0,55.1,53.5,99,98,95,29.94,29.81,10,4,16,0.01
2013-9-14,61.0,56.1,53.5,58.3,55.2,53.2,99,97,89,29.86,29.78,14,4,18,0.01
2013-9-15,66.9,59.7,54.6,59.5,56.5,53.5,98,89,73,29.91,29.80,11,3,16,0.00
2013-9-16,64.5,58.9,55.8,61.0,57.0,55.1,99,94,77,29.93,29.83,14,3,20,0.00
2013-9-17,63.0,58.0,53.9,56.7,54.9,51.5,98,90,77,29.92,29.86,19,4,25,0.00
2013-9-18,71.1,58.8,51.2,57.5,52.3,49.6,96,81,51,29.95,29.87,8,1,12,0.00
2013-9-19,73.7,59.3,51.1,59.4,53.1,48.3,96,82,57,29.89,29.80,6,1,8,0.00
2013-9-20,67.2,58.7,51.8,62.6,57.2,50.5,99,95,84,29.89,29.80,6,2,11,0.01
2013-9-21,61.8,59.1,55.4,60.0,57.8,54.6,99,96,88,29.92,29.83,9,1,11,0.80
2013-9-22,63.5,57.7,52.5,56.9,54.8,52.0,99,90,76,30.03,29.92,12,1,18,0.01
2013-9-23,72.5,61.3,55.2,61.7,56.4,51.4,97,85,60,30.05,29.97,8,1,12,0.00
2013-9-24,64.1,57.7,53.8,58.2,54.7,51.3,96,90,80,30.03,29.94,14,3,25,0.00
2013-9-25,59.8,55.7,52.2,52.3,50.3,47.6,94,82,69,29.97,29.86,13,3,23,0.00
2013-9-26,64.9,56.1,48.3,50.4,45.9,38.5,89,70,40,30.01,29.87,10,1,11,0.00
2013-9-27,70.7,61.9,51.0,49.8,42.3,36.4,92,51,29,30.13,30.01,7,2,12,0.00
2013-9-28,70.9,58.4,48.3,56.2,51.0,44.4,96,78,39,30.12,30.05,8,1,13,0.00
2013-9-29,67.8,60.3,53.6,61.9,58.2,53.0,99,93,77,30.14,30.08,8,1,10,0.00
2013-9-30,64.7,60.5,54.2,63.1,59.0,46.4,98,95,71,30.10,30.00,8,1,12,0.01